Regional Weather Roundup
Issued by NWS State College, PA

Home | Current Version | Previous Version | Text Only | Print | Product List | Glossary On
Versions: 1 2 3 4 5 6 7 8 9 10 11 12 13 14 15 16 17 18 19 20 21 22 23 24 25 26 27 28 29 30 31 32 33 34 35 36 37 38 39 40 41 42 43 44 45 46 47 48 49 50
000
ASUS41 KCTP 270210
RWRCTP

REGIONAL WEATHER ROUNDUP
NATIONAL WEATHER SERVICE STATE COLLEGE PA
900 PM EST WED NOV 26 2014

Note: "fair" indicates few or no clouds below 12,000 feet with no
significant weather and/or obstructions to visibility.

* = STATION THAT DOES NOT REPORT PRECIPITATION /E.G. RAIN...SNOW...ETC/
    THUNDER OR FOG.

PAZ002>004-007>009-013>016-020>023-029>032-270300-
WESTERN PENNSYLVANIA

CITY           SKY/WX    TMP DP  RH WIND       PRES   REMARKS
ERIE           CLOUDY    35  28  75 CALM      30.03S
MEADVILLE      CLOUDY    32  28  85 W3        29.99R
FRANKLIN*      CLOUDY    30  27  86 CALM      29.99S
NEW CASTLE       N/A     32  30  92 CALM      30.02F
BEAVER COUNTY  CLOUDY    32  32 100 CALM      30.00S
BUTLER*        CLOUDY    32  30  93 CALM      30.01S
PITTSBURGH INT CLOUDY    33  32  96 NW3       30.00S FOG
PITTSBURGH     CLOUDY    32  29  88 NW5       29.99S FOG
INDIANA*       CLOUDY    32  32 100 CALM      30.01S FOG
LATROBE        CLOUDY   N/A N/A N/A CALM      30.01S FOG
WASHINGTON CO* CLOUDY    32  30  93 CALM      30.02S
$$

PAZ004>006-010>012-017>019-024>028-033>037-041-042-045-046-049>053-270300-
CENTRAL PENNSYLVANIA

CITY           SKY/WX    TMP DP  RH WIND       PRES   REMARKS
BRADFORD       CLOUDY    27  23  85 CALM      29.94S
DUBOIS         CLOUDY    30  28  92 N5        29.95S
CLEARFIELD     CLOUDY    30  28  92 CALM      29.96F
JOHNSTOWN      FOG       30  28  92 NW7       29.92S VSB 1/4
ALTOONA        CLOUDY    31  31 100 NE5       29.95S FOG
STATE COLLEGE  FLURRIES  30  28  93 CALM      29.96R
WILLIAMSPORT   CLOUDY    32  30  92 W6        29.95F
SELINSGROVE    CLOUDY    32  29  88 N7        29.95F
FT INDIANTOWN  CLOUDY    35  29  80 N8G17     29.91F
CAPITAL CITY   CLOUDY    36  30  79 NW8       29.94F
HARRISBURG     CLOUDY    34  30  85 NW8       29.92F
YORK           CLOUDY    34  31  88 NW5       29.93F
$$

PAZ038>040-043-044-047-048-054-055-060>062-067>071-270300-
EASTERN PENNSYLVANIA

CITY           SKY/WX    TMP DP  RH WIND       PRES   REMARKS
SCRANTON       LGT SNOW  32  29  88 VRB5      29.92S FOG
MOUNT POCONO   LGT SNOW  29  25  85 NW16      29.82R FOG
ALLENTOWN      CLOUDY    35  29  78 N10       29.87F
QUAKERTOWN*    CLOUDY    32  32 100 N7        29.87S
READING        CLOUDY    35  31  85 NW9       29.90S
LANCASTER      CLOUDY    34  31  88 NW7       29.92R
COATESVILLE    FLURRIES  34  32  93 N12       29.88S
POTTSTOWN      CLOUDY    34  31  88 NW6       29.89S
BLUE BELL      CLOUDY    34  34 100 NW3       29.86F
DOYLESTOWN     CLOUDY    33  33 100 N9        29.85F
WILLOW GROVE   NOT AVBL
NORTH PHILA    LGT RAIN  36  31  82 NW13      29.87R
PHILADELPHIA   CLOUDY    36  32  85 NW16      29.88R
$$



USA.gov is the U.S. government's official web portal to all federal, state and local government web resources and services.